Location: El Limón
(10.3059°N, 67.6321°W)
Time: 14:52:27
(UTC+00:00)

Meteor 1-21 - Pass Details

Date: 14 April 2024
Orbit: 845 x 885 km, 81.2° (Epoch: 28 May)

Event Time Altitude Azimuth Distance (km) Brightness Sun altitude
Rises 09:54:07 0° 186° (S) 3,436 7.2 -7.1°
Reaches altitude 10° 09:56:33 10° 186° (S) 2,493 6.5 -6.6°
Maximum altitude 10:02:13 85° 273° (W) 860 4.3 -5.2°
Drops below altitude 10° 10:07:49 10° 4° (N) 2,468 6.8 -3.8°
Sets 10:10:13 0° 5° (N) 3,399 7.6 -3.2°
